Starlink 31364

operational
NORAD ID: 59463 Int'l Des: 2024-068 Owner: SPXS Country: US Constellation: starlink
LEOCIRCULAR

About Starlink 31364

Description loading...

Live Position

Loading 3D Globe...

Upcoming Passes

Altitude History

Altitude vs Time

uPlot chart will show altitude changes over time

Two-Line Element Set

1 59463U 24068J 25305.58939877 -.00000852 00000-0 -21438-4 0 9997
2 59463 43.0025 34.3150 0001058 269.9108 90.1623 15.27571858 88970
Epoch: Nov 1, 2025 • Age: 8 hours

Current Status

Altitude 488.6 km
Velocity 7.62 km/s
Sub-Earth Point -24.48°S, 5.42°W
Launch Date Apr 10, 2024
Age 1.5 years
Type internet

Technical Details

Classification Payload
Mass 730.00 kg
Dry Mass 700.00 kg
Total Mass 730.00 kg
Length 0.30 m
Diameter 4.10 m
Span 29.00 m
Shape Box + pan
Manufacturer SPXS
Bus Type Starlink V2M
Phase Status In Orbit
Owner/State SPXS/US

Large Constellations

Loading constellations...